Weather reports worldwide

Advertisment
Topcliffe, United Kingdom (3265): temperature & dewpoint: 12.01.2018 13:00:00 - 18.01.2018 13:00:00 (GMT)Topcliffe, United Kingdom (3265): wind speed & gusts: 12.01.2018 13:00:00 - 18.01.2018 13:00:00 (GMT)Topcliffe, United Kingdom (3265): wind direction: 12.01.2018 13:00:00 - 18.01.2018 13:00:00 (GMT)Topcliffe, United Kingdom (3265): reduced air pressure: 12.01.2018 13:00:00 - 18.01.2018 13:00:00 (GMT)Topcliffe, United Kingdom (3265): visibility: 12.01.2018 13:00:00 - 18.01.2018 13:00:00 (GMT)Topcliffe, United Kingdom (3265): precipitation: 12.01.2018 13:00:00 - 18.01.2018 13:00:00 (GMT)
Date & Time tt [°C] td [°C] ff [km/h] ff [kn] fx [km/h] fx [kn] dd ppp [hPa] vv [km] rr [mm]
18.01.2018 13:00:00 3,6 0,9 9 5 - - SW 997,9 40 0,0
18.01.2018 12:00:00 2,1 0,0 11 6 - - SW 998,1 50 0,6
18.01.2018 11:00:00 2,7 -0,4 13 7 - - W 997,9 50 2,2
18.01.2018 10:00:00 2,3 -0,7 13 7 - - W 997,2 50 1,0
18.01.2018 09:00:00 1,8 -0,5 9 5 - - W 996,5 50 0,4
18.01.2018 08:00:00 1,9 -0,4 15 8 - - W 994,9 50 0,6
18.01.2018 07:00:00 1,7 0,1 16 9 - - W 993,1 50 0,6
18.01.2018 06:00:00 1,4 0,4 31 17 - - NW 990,7 50 1,0
18.01.2018 05:00:00 0,7 0,2 34 18 50 27 NNW 987,9 6 0,8
18.01.2018 04:00:00 0,6 0,3 24 13 - - N 982,9 14 0,6
18.01.2018 03:00:00 0,5 0,1 13 7 - - NNE 981,7 2,2 1,0
18.01.2018 02:00:00 0,8 0,3 28 15 - - E 982,5 2,7 0,8
18.01.2018 01:00:00 0,3 0,0 26 14 - - ESE 986,4 2,1 1,2
18.01.2018 00:00:00 1,5 0,6 28 15 - - SSE 990,2 3,2 1,8
17.01.2018 23:00:00 2,8 1,6 18 10 - - SSE 993,0 12 0,0
17.01.2018 22:00:00 3,0 1,5 18 10 - - SSW 996,1 50 0,0
17.01.2018 21:00:00 4,7 1,2 18 10 - - SW 997,8 15 0,0
17.01.2018 20:00:00 4,4 1,0 18 10 - - SW 999,3 17 0,0
17.01.2018 19:00:00 4,6 0,9 21 11 - - WSW 1000,4 23 0,0
17.01.2018 18:00:00 4,2 0,2 15 8 - - WSW 1000,9 19 0,0
17.01.2018 17:00:00 4,7 0,4 26 14 - - WSW 1001,4 30 0,0
17.01.2018 16:00:00 4,5 0,1 28 15 46 25 W 1001,1 10 0,0
17.01.2018 15:00:00 5,6 -0,1 29 16 54 29 W 1000,9 10 0,0
17.01.2018 14:00:00 5,8 -0,3 34 18 54 29 W 1000,5 10 0,0
17.01.2018 13:00:00 5,8 -0,1 29 16 50 27 W 1000,3 10 0,0
17.01.2018 12:00:00 5,6 -0,2 34 18 52 28 W 1000,0 10 0,0
17.01.2018 11:00:00 5,1 -0,2 26 14 - - W 999,8 24 0,0
17.01.2018 10:00:00 4,2 -1,5 26 14 - - W 998,7 10 0,0
17.01.2018 09:00:00 3,4 -2,0 28 15 - - W 997,5 40 0,0
17.01.2018 08:00:00 3,5 -1,9 28 15 46 25 WNW 996,3 35 0,0
17.01.2018 07:00:00 2,1 0,3 21 11 54 29 WNW 994,9 50 0,4
17.01.2018 06:00:00 3,4 -1,3 29 16 55 30 W 992,9 40 0,0
17.01.2018 05:00:00 3,2 -0,6 28 15 48 26 W 991,0 50 0,0
17.01.2018 04:00:00 1,9 -0,8 21 11 46 25 W 989,9 50 0,0
17.01.2018 03:00:00 2,0 -1,8 18 10 - - W 989,6 50 0,0
17.01.2018 02:00:00 1,7 -1,0 18 10 55 30 W 989,0 12 0,0
17.01.2018 01:00:00 2,4 -2,9 16 9 - - W 988,4 50 0,0
17.01.2018 00:00:00 2,3 -2,5 22 12 46 25 W 988,0 50 0,0
16.01.2018 23:00:00 2,7 -2,7 31 17 61 33 W 987,1 50 0,0
16.01.2018 22:00:00 2,5 -2,1 22 12 - - W 986,8 45 0,0
16.01.2018 21:00:00 2,7 -2,1 18 10 - - W 986,4 40 0,0
16.01.2018 20:00:00 2,2 -1,7 22 12 - - WSW 986,3 50 0,0
16.01.2018 19:00:00 2,1 -0,9 21 11 - - WSW 986,5 50 0,0
16.01.2018 18:00:00 2,2 -1,2 16 9 - - WSW 986,3 50 0,0
16.01.2018 17:00:00 2,5 0,2 21 11 - - WSW 987,0 45 0,2
16.01.2018 16:00:00 2,0 0,3 18 10 50 27 W 987,5 12 -
16.01.2018 15:00:00 4,2 -1,3 34 18 55 30 W 987,1 10 0,0
16.01.2018 14:00:00 4,4 0,0 26 14 52 28 W 987,7 10 0,0
16.01.2018 13:00:00 5,1 -0,2 39 21 57 31 W 987,8 40 0,0
16.01.2018 12:00:00 4,5 0,3 34 18 61 33 W 988,1 10 0,0
16.01.2018 11:00:00 4,7 -0,9 31 17 54 29 W 988,4 10 0,0
16.01.2018 10:00:00 3,4 0,0 22 12 52 28 WSW 988,1 10 0,0
16.01.2018 09:00:00 3,4 -1,1 13 7 - - W 988,4 10 0,0
16.01.2018 08:00:00 2,4 -0,5 11 6 - - WSW 987,9 10 0,0
16.01.2018 07:00:00 3,4 -1,1 21 11 - - W 987,3 45 0,0
16.01.2018 06:00:00 2,8 -0,1 26 14 46 25 WNW 987,0 35 0,0
16.01.2018 05:00:00 2,9 -0,3 24 13 50 27 W 986,7 50 0,0
16.01.2018 04:00:00 3,7 -0,5 22 12 50 27 W 986,4 50 0,0
16.01.2018 03:00:00 3,8 0,2 37 20 57 31 W 986,2 10 0,2
16.01.2018 02:00:00 4,5 0,3 21 11 55 30 W 985,7 45 0,0
16.01.2018 01:00:00 4,6 0,4 24 13 - - W 986,2 50 0,0
16.01.2018 00:00:00 4,5 1,5 21 11 54 29 W 986,4 45 0,2
15.01.2018 23:00:00 4,9 0,7 22 12 - - WSW 986,5 40 0,0
15.01.2018 22:00:00 4,9 1,4 21 11 - - W 986,8 50 0,0
15.01.2018 21:00:00 3,9 0,6 15 8 - - WSW 987,0 50 0,0
15.01.2018 20:00:00 4,9 0,9 15 8 - - W 987,4 50 0,0
15.01.2018 19:00:00 4,9 0,7 34 18 - - WSW 987,6 50 0,0
15.01.2018 18:00:00 4,5 1,2 5 3 - - WSW 987,6 50 0,0
15.01.2018 17:00:00 6,2 1,7 16 9 - - WNW 987,9 50 0,0
15.01.2018 16:00:00 6,6 2,3 18 10 - - W 987,5 10 0,0
15.01.2018 15:00:00 8,5 3,5 21 11 - - W 987,3 10 0,0
15.01.2018 14:00:00 9,2 4,5 16 9 - - W 987,2 10 0,0
15.01.2018 13:00:00 9,1 4,8 22 12 - - W 987,3 50 0,0
15.01.2018 12:00:00 8,1 6,2 15 8 - - SW 987,8 10 0,0
15.01.2018 11:00:00 7,8 7,3 5 3 - - SSW 988,4 10 0,2
15.01.2018 10:00:00 6,8 6,6 9 5 - - S 989,5 3,0 0,8
15.01.2018 09:00:00 6,3 5,9 13 7 - - SE 990,2 6 1,0
15.01.2018 08:00:00 6,4 5,8 16 9 - - SE 990,8 19 0,0
15.01.2018 07:00:00 6,3 5,5 18 10 - - SE 991,9 40 0,0
15.01.2018 06:00:00 6,1 5,4 24 13 - - SSE 992,8 12 0,0
15.01.2018 05:00:00 6,3 5,4 15 8 - - SE 994,5 24 0,2
15.01.2018 04:00:00 5,6 4,7 22 12 - - S 995,9 12 0,0
15.01.2018 03:00:00 4,6 4,1 24 13 - - SSE 997,9 5 0,0
15.01.2018 02:00:00 3,8 3,1 28 15 - - SSE 999,8 4,1 -
15.01.2018 01:00:00 4,0 3,2 28 15 - - SSE 1001,4 4,9 0,4
15.01.2018 00:00:00 3,3 2,0 31 17 - - SSE 1003,7 5 0,0
14.01.2018 23:00:00 3,0 1,3 26 14 - - SSE 1005,5 5 0,0
14.01.2018 22:00:00 2,7 0,6 28 15 - - SSE 1007,2 6 0,0
14.01.2018 21:00:00 2,7 0,4 26 14 - - SSE 1008,8 7 0,0
14.01.2018 20:00:00 2,5 0,1 24 13 - - SSE 1010,7 7 0,0
14.01.2018 19:00:00 2,6 0,1 26 14 - - SSE 1011,7 7 0,0
14.01.2018 18:00:00 2,8 0,3 24 13 - - SSE 1013,2 6 0,0
14.01.2018 17:00:00 3,2 0,3 18 10 - - S 1013,7 8 0,0
14.01.2018 16:00:00 3,6 0,1 18 10 - - S 1014,4 8 0,0
14.01.2018 15:00:00 3,7 0,2 26 14 - - S 1015,2 9 0,0
14.01.2018 14:00:00 3,7 0,2 26 14 - - S 1015,9 9 0,0
14.01.2018 13:00:00 3,8 0,5 22 12 - - S 1017,0 9 0,0
14.01.2018 12:00:00 3,7 0,5 28 15 - - S 1018,1 11 0,0
14.01.2018 11:00:00 3,9 0,9 21 11 - - S 1018,9 8 0,0
14.01.2018 10:00:00 3,8 1,7 18 10 - - SSE 1019,2 6 0,0
14.01.2018 09:00:00 3,8 1,7 16 9 - - S 1019,8 5 0,0
14.01.2018 08:00:00 3,8 1,8 16 9 - - S 1019,4 5 0,0
14.01.2018 07:00:00 3,7 2,1 11 6 - - SSE 1019,3 4,6 0,0
14.01.2018 06:00:00 3,8 1,9 16 9 - - SSE 1019,4 5 0,0
14.01.2018 05:00:00 3,6 2,2 11 6 - - SE 1019,5 4,2 0,0
14.01.2018 04:00:00 3,7 2,1 13 7 - - SSE 1019,8 4,9 0,0
14.01.2018 03:00:00 3,8 2,0 13 7 - - SE 1020,0 5 0,0
14.01.2018 02:00:00 3,8 2,1 11 6 - - SE 1020,2 5 0,0
14.01.2018 01:00:00 4,0 1,8 15 8 - - SSE 1020,5 7 0,0
14.01.2018 00:00:00 4,2 2,1 22 12 - - SSE 1020,5 6 0,0
13.01.2018 23:00:00 4,4 2,1 22 12 - - SSE 1020,5 6 0,0
13.01.2018 22:00:00 4,5 2,3 21 11 - - SSE 1020,1 6 0,0
13.01.2018 21:00:00 4,8 2,4 24 13 - - SSE 1020,3 6 0,0
13.01.2018 20:00:00 5,2 3,0 22 12 - - SE 1019,8 6 0,0
13.01.2018 19:00:00 5,4 2,4 26 14 - - SE 1019,3 9 0,0
13.01.2018 18:00:00 5,4 3,2 26 14 - - SE 1019,3 7 0,0
13.01.2018 17:00:00 5,3 3,1 24 13 - - SE 1018,9 7 0,0
13.01.2018 16:00:00 5,3 3,1 21 11 - - SE 1018,7 7 0,0
13.01.2018 15:00:00 5,5 3,0 24 13 - - SE 1018,7 7 0,0
13.01.2018 14:00:00 5,4 2,9 28 15 - - SE 1018,8 8 0,0
13.01.2018 13:00:00 5,3 3,0 24 13 - - SE 1019,2 8 0,0
13.01.2018 12:00:00 5,4 3,0 26 14 - - SSE 1019,6 10 0,0
13.01.2018 11:00:00 5,2 3,1 24 13 - - SE 1019,9 7 0,0
13.01.2018 10:00:00 4,9 3,2 22 12 - - SE 1019,6 6 0,0
13.01.2018 09:00:00 4,6 3,0 22 12 - - SE 1019,5 6 0,0
13.01.2018 08:00:00 4,3 2,9 22 12 - - SE 1019,3 6 0,0
13.01.2018 07:00:00 4,7 3,5 22 12 - - SSE 1019,4 4,8 0,0
13.01.2018 06:00:00 4,9 3,8 22 12 - - SSE 1019,4 3,9 0,0
13.01.2018 05:00:00 5,1 4,0 26 14 - - SE 1019,6 3,7 0,0
13.01.2018 04:00:00 5,1 4,2 21 11 - - SE 1020,4 3,8 0,0
13.01.2018 03:00:00 5,1 4,2 22 12 - - SE 1020,7 4,0 0,0
13.01.2018 02:00:00 5,0 4,1 21 11 - - SE 1021,3 4,0 0,0
13.01.2018 01:00:00 4,9 4,0 18 10 - - SE 1021,7 4,3 0,0
13.01.2018 00:00:00 4,6 3,8 16 9 - - SE 1022,3 3,8 0,0
12.01.2018 23:00:00 4,5 3,7 18 10 - - SE 1022,8 3,9 0,0
12.01.2018 22:00:00 4,5 3,6 18 10 - - SE 1023,3 3,6 0,0
12.01.2018 21:00:00 4,5 3,6 15 8 - - SE 1023,7 4,2 0,0
12.01.2018 20:00:00 4,5 3,6 16 9 - - SE 1024,0 3,9 0,0
12.01.2018 19:00:00 4,6 3,6 16 9 - - SE 1024,2 3,9 0,0
12.01.2018 18:00:00 4,7 3,6 16 9 - - ESE 1024,5 5 0,2
12.01.2018 17:00:00 4,4 3,3 15 8 - - ESE 1024,6 5 0,0
12.01.2018 16:00:00 4,4 3,3 18 10 - - ESE 1025,2 4,6 0,0
12.01.2018 15:00:00 4,8 3,4 16 9 - - SE 1025,2 6 0,0
12.01.2018 14:00:00 5,3 3,9 21 11 - - SSE 1025,5 8 0,0
12.01.2018 13:00:00 5,2 4,2 21 11 - - SSE 1026,1 9 0,0

tt = temperature
td = dewpoint
ff = wind speed
fx = gusts
dd = wind direction
ppp = reduced air pressure
vv = visibility
rr = precipitation

Next stations